Balance de Rebecq

Balances > Rebecq > Ce mois-ci

Ce mois-ci

Voir les données pour : cette semaine | hier

Graphiques

  Température (°C)   Température intérieure (°C)   Humidité (%)   Poids (kg)   Pluie (l/m²)



Journal

Désolé, aucune information concernant cette période n'est disponible.

Tableau

Date Température (°C)Température int. (°C)Humidité (%)Pluie (l/m²)Poids (kg)
minmaxmoyminmaxmoyminmaxmoypoidsvariation
20/09/2016,523,119,533,634,334,0426957,4036,5-0,1
19/09/2013,126,320,834,034,634,3567967,1036,60,0
18/09/209,322,417,133,834,534,1618068,5036,6-0,1
17/09/2013,820,717,333,834,434,1538163,7036,7-0,2
16/09/2016,226,721,934,234,634,3578371,0036,90,0
15/09/2016,429,723,834,335,134,6488264,0036,9+0,1
14/09/2012,727,021,134,235,034,5548669,8036,80,0
13/09/2012,222,218,034,334,634,3688777,2036,8+0,1
12/09/2011,120,516,734,134,534,3648775,4036,7-0,1
11/09/2010,021,516,733,634,434,1688575,2036,8-0,2
10/09/2015,121,218,534,234,634,3567765,5037,0-0,5
09/09/2017,923,620,734,234,734,3748881,0037,5+1,3
08/09/2014,919,818,034,134,334,2848784,8036,20,0
07/09/209,320,516,134,234,434,2658875,0036,2-0,3
06/09/2010,219,715,434,134,334,2618773,0036,5-0,3
05/09/2015,019,017,034,034,234,0658775,5136,8+1,0
04/09/2018,720,719,433,934,234,0768884,0235,8-0,2
03/09/2014,021,418,233,934,234,0738579,4036,0-0,1
02/09/2010,820,516,534,034,234,0608671,2036,1-0,2
01/09/2011,820,016,333,834,534,2478767,8036,3-0,4
31/08/2014,119,216,534,034,534,2648673,8036,7-0,7
30/08/2014,618,716,733,934,534,2778883,2137,4+2,3
29/08/2012,818,015,534,034,634,1818985,8135,1-0,4
28/08/2015,820,618,433,834,334,1688674,7135,5+2,6
27/08/2013,521,518,133,834,534,1648877,4132,9-0,3
26/08/2016,920,018,533,834,334,0728476,7033,2-0,1
25/08/2014,821,818,534,034,234,0768982,2033,3-0,3
24/08/2015,220,318,233,634,333,9738780,4033,6+2,5
23/08/2016,420,218,333,634,233,9778481,21531,1-0,1
22/08/2017,223,020,033,934,334,1638171,5031,20,0